Location: Oshawa
(43.9000°N, 78.8670°W)
Time: 13:44:10
(UTC-04:00)

Cosmos 839 Rocket - Visible Passes

Search period start: 28 July 2015 00:00
Search period end: 07 August 2015 00:00
Orbit: 960 x 2093 km, 65.9° (Epoch: 26 July)

Date Brightness Start Highest point End Pass type
(mag) Time Alt. Az. Time Alt. Az. Time Alt. Az.
28 Jul 5.3 01:08:15 19° WSW 01:13:35 51° NW 01:22:29 10° NNE visible
28 Jul 6.8 03:10:28 10° WNW 03:16:42 22° NNW 03:23:57 10° NNE visible
28 Jul 7.1 05:14:19 10° NNW 05:21:22 22° NNE 05:29:38 10° ENE visible
28 Jul 5.4 22:30:12 22° SE 22:32:09 25° ESE 22:38:35 10° NE visible
29 Jul 4.8 00:26:44 25° SW 00:31:21 71° NW 00:40:24 10° NNE visible
29 Jul 6.6 02:27:16 10° WNW 02:33:47 25° NNW 02:41:27 10° NNE visible
29 Jul 7.1 04:31:46 10° NW 04:38:17 20° N 04:45:51 10° NE visible
29 Jul 5.8 21:48:32 13° ESE 21:50:49 15° E 21:55:08 10° ENE visible
29 Jul 4.4 23:45:04 27° SSW 23:49:21 84° ESE 23:58:17 10° NE visible
30 Jul 6.3 01:44:13 10° W 01:50:59 31° NNW 01:59:09 10° NNE visible
30 Jul 7.1 03:48:57 10° NW 03:55:10 20° N 04:02:20 10° NE visible
30 Jul 4.5 23:03:13 24° S 23:07:33 58° ESE 23:16:04 10° NE visible
31 Jul 5.9 01:01:23 10° WSW 01:08:21 39° NW 01:17:00 10° NNE visible
31 Jul 7.0 03:05:53 10° NW 03:12:04 20° N 03:19:11 10° NE visible
31 Jul 7.2 05:08:57 10° NNW 05:16:44 26° NNE 05:25:54 10° ENE visible
31 Jul 5.0 22:21:01 16° SSE 22:25:57 38° ESE 22:33:41 10° NE visible
01 Aug 5.3 00:18:50 10° WSW 00:25:55 52° NW 00:34:55 10° NNE visible
01 Aug 6.9 02:22:42 10° WNW 02:29:02 22° NNW 02:36:23 10° NNE visible
01 Aug 7.2 04:26:36 10° NNW 04:33:43 22° NNE 04:42:02 10° ENE visible
01 Aug 5.4 21:39:13 10° SSE 21:44:31 24° ESE 21:50:58 10° NE visible
01 Aug 4.8 23:36:35 10° SW 23:43:41 72° NW 23:52:49 10° NNE visible
02 Aug 6.7 01:39:30 10° WNW 01:46:06 26° NNW 01:53:53 10° NNE visible
02 Aug 7.2 03:44:02 10° NW 03:50:37 20° N 03:58:16 10° NE visible
02 Aug 4.5 22:54:41 10° SSW 23:01:41 82° ESE 23:10:42 10° NE visible
03 Aug 6.4 00:56:27 10° W 01:03:18 31° NNW 01:11:37 10° NNE visible
03 Aug 7.2 03:01:11 10° NW 03:07:30 20° N 03:14:45 10° NE visible
03 Aug 7.2 05:03:26 10° NNW 05:12:00 30° NNE 05:22:05 10° E visible
03 Aug 4.6 22:13:09 10° S 22:19:54 57° ESE 22:28:29 10° NE visible
04 Aug 5.9 00:13:37 10° WSW 00:20:40 40° NW 00:29:26 10° NNE visible
04 Aug 7.1 02:18:07 10° NW 02:24:24 20° N 02:31:37 10° NE visible
04 Aug 7.3 04:21:15 10° NNW 04:29:05 26° NNE 04:38:18 10° ENE visible
04 Aug 5.0 21:32:04 10° S 21:38:18 38° ESE 21:46:05 10° NE visible
04 Aug 5.4 23:31:06 10° WSW 23:38:14 53° NW 23:47:20 10° NNE visible
05 Aug 7.0 01:34:55 10° WNW 01:41:21 23° NNW 01:48:49 10° NNE visible
05 Aug 7.3 03:38:53 10° NNW 03:46:04 22° NNE 03:54:26 10° ENE visible
05 Aug 4.8 22:48:52 10° SW 22:56:01 73° NW 23:05:15 10° NNE visible
06 Aug 6.8 00:51:44 10° W 00:58:25 26° NNW 01:06:20 10° NNE visible
06 Aug 7.3 02:56:17 10° NW 03:02:58 21° N 03:10:41 10° NE visible
06 Aug 7.0 04:57:50 10° NNW 05:07:10 37° NE 05:18:04 10° E visible
06 Aug 4.5 22:06:58 10° SSW 22:14:01 81° ESE 22:23:07 10° NE visible
